Regional Weather Roundup
Issued by NWS

Home | Current Version | Previous Version | Graphics & Text | Print | Product List | Glossary On
Versions: 1 2 3 4 5 6 7 8 9 10 11 12 13 14 15 16 17 18 19 20 21 22 23 24 25 26 27 28 29 30 31 32 33 34 35 36 37 38 39 40 41 42 43 44 45 46 47 48 49 50
000
ASUS45 KCYS 031410
RWRWY

WYOMING REGIONAL WEATHER ROUNDUP
NATIONAL WEATHER SERVICE CHEYENNE WY
800 AM MDT MON AUG 03 2015

NOTE:  "FAIR" INDICATES FEW OR NO CLOUDS BELOW 12,000 FEET
WITH NO SIGNIFICANT WEATHER AND/OR OBSTRUCTIONS TO VISIBILITY.

WYZ001-031500-
YELLOWSTONE NATIONAL PARK

CITY           SKY/WX    TMP DP  RH WIND       PRES   REMARKS
LK YELLOWSTONE   N/A     57  45  64 CALM      30.25F
W YELLOWSTONE  NOT AVBL

$$
WYZ002>013-054>058-071-098>099-031500-
NORTHERN WYOMING

CITY           SKY/WX    TMP DP  RH WIND       PRES   REMARKS
JACKSON        SUNNY     54  45  71 E5        30.16S
CODY           FAIR      64  48  55 NW3       30.07S
GREYBULL       FAIR      62  44  51 CALM      30.00R
WORLAND        FAIR      68  41  37 SW7       30.01S
SHERIDAN       FAIR      61  49  64 CALM      30.03S
BUFFALO        FAIR      70  53  54 S9        30.09S
GILLETTE       FAIR      70  53  54 S15       30.06S
HULETT         FAIR      61  50  67 CALM      30.08S
NEWCASTLE      FAIR      66  50  55 SE3       30.08S

$$
WYZ014>020-022>026-101>103-031500-
CENTRAL WYOMING

CITY           SKY/WX    TMP DP  RH WIND       PRES   REMARKS
BIG PINEY      FAIR      60  41  49 N5        30.20S
PINEDALE       FAIR      61  43  51 CALM      30.21F
DUBOIS         NOT AVBL
LANDER         FAIR      70  42  36 NW3       30.09S
RIVERTON       FAIR      66  49  54 N3        30.09S
CASPER         FAIR      63  50  62 W3        30.11S
DOUGLAS        FAIR      63  54  72 NW6       30.10S

$$
WYZ021-027>030-104>119-031500-
SOUTHERN WYOMING

CITY           SKY/WX    TMP DP  RH WIND       PRES   REMARKS
EVANSTON       LGT RAIN  55  53  93 S10       30.20R
KEMMERER       FAIR      61  45  55 N10       30.19F
FORT BRIDGER   DRIZZLE   63  52  67 SE10      30.22R
ROCK SPRINGS   CLOUDY    61  47  59 S9        30.19R
DIXON          PTSUNNY   63  47  57 CALM      30.22S
RAWLINS        FAIR      63  47  55 SW3       30.22R
SARATOGA       CLOUDY    59  46  63 CALM      30.23S
LARAMIE        FAIR      64  46  52 SW6       30.23R
CHEYENNE       FAIR      67  50  54 SW3       30.14S
TORRINGTON     FAIR      66  56  70 VRB3      30.02S
PINE BLUFFS    FAIR      64  52  63 CALM      30.09S

$$



USA.gov is the U.S. government's official web portal to all federal, state and local government web resources and services.